Year,Month,Day,Hour,Minute,Value (Times are PST for temperature in C)
2012,10,07,00,00,7.70
2012,10,07,00,01,7.70
2012,10,07,00,02,7.70
2012,10,07,00,03,7.70
2012,10,07,00,04,7.70
2012,10,07,00,05,7.70
2012,10,07,00,06,7.70
2012,10,07,00,07,7.70
2012,10,07,00,08,7.70
2012,10,07,00,09,7.60
2012,10,07,00,10,7.60
2012,10,07,00,11,7.60
2012,10,07,00,12,7.60
2012,10,07,00,13,7.60
2012,10,07,00,14,7.60
2012,10,07,00,15,7.60
2012,10,07,00,16,7.60
2012,10,07,00,17,7.60
2012,10,07,00,18,7.60
2012,10,07,00,19,7.60
2012,10,07,00,20,7.60
2012,10,07,00,21,7.60
2012,10,07,00,22,7.50
2012,10,07,00,23,7.50
2012,10,07,00,24,7.50
2012,10,07,00,25,7.50
2012,10,07,00,26,7.50
2012,10,07,00,27,7.50
2012,10,07,00,28,7.50
2012,10,07,00,29,7.50
2012,10,07,00,30,7.40
2012,10,07,00,31,7.40
2012,10,07,00,32,7.40
2012,10,07,00,33,7.40
2012,10,07,00,34,7.40
2012,10,07,00,35,7.40
2012,10,07,00,36,7.40
2012,10,07,00,37,7.40
2012,10,07,00,38,7.50
2012,10,07,00,39,7.40
2012,10,07,00,40,7.40
2012,10,07,00,41,7.40
2012,10,07,00,42,7.40
2012,10,07,00,43,7.40
2012,10,07,00,44,7.40
2012,10,07,00,45,7.40
2012,10,07,00,46,7.40
2012,10,07,00,47,7.40
2012,10,07,00,48,7.40
2012,10,07,00,49,7.40
2012,10,07,00,50,7.40
2012,10,07,00,51,7.40
2012,10,07,00,52,7.30
2012,10,07,00,53,7.30
2012,10,07,00,54,7.30
2012,10,07,00,55,7.30
2012,10,07,00,56,7.30
2012,10,07,00,57,7.20
2012,10,07,00,58,7.20
2012,10,07,00,59,7.20
2012,10,07,01,00,7.20
2012,10,07,01,01,7.20
2012,10,07,01,02,7.20
2012,10,07,01,03,7.30
2012,10,07,01,04,7.20
2012,10,07,01,05,7.20
2012,10,07,01,06,7.20
2012,10,07,01,07,7.20
2012,10,07,01,08,7.20
2012,10,07,01,09,7.20
2012,10,07,01,10,7.20
2012,10,07,01,11,7.20
2012,10,07,01,12,7.20
2012,10,07,01,13,7.20
2012,10,07,01,14,7.20
2012,10,07,01,15,7.20
2012,10,07,01,16,7.20
2012,10,07,01,17,7.10
2012,10,07,01,18,7.10
2012,10,07,01,19,7.10
2012,10,07,01,20,7.10
2012,10,07,01,21,7.10
2012,10,07,01,22,7.10
2012,10,07,01,23,7.10
2012,10,07,01,24,7.10
2012,10,07,01,25,7.10
2012,10,07,01,26,7.10
2012,10,07,01,27,7.10
2012,10,07,01,28,7.10
2012,10,07,01,29,7.10
2012,10,07,01,30,7.20
2012,10,07,01,31,7.20
2012,10,07,01,32,7.20
2012,10,07,01,33,7.20
2012,10,07,01,34,7.20
2012,10,07,01,35,7.20
2012,10,07,01,36,7.20
2012,10,07,01,37,7.20
2012,10,07,01,38,7.20
2012,10,07,01,39,7.20
2012,10,07,01,40,7.30
2012,10,07,01,41,7.30
2012,10,07,01,42,7.30
2012,10,07,01,43,7.30
2012,10,07,01,44,7.30
2012,10,07,01,45,7.30
2012,10,07,01,46,7.30
2012,10,07,01,47,7.30
2012,10,07,01,48,7.20
2012,10,07,01,49,7.20
2012,10,07,01,50,7.20
2012,10,07,01,51,7.20
2012,10,07,01,52,7.10
2012,10,07,01,53,7.10
2012,10,07,01,54,7.10
2012,10,07,01,55,7.00
2012,10,07,01,56,7.00
2012,10,07,01,57,7.00
2012,10,07,01,58,7.00
2012,10,07,01,59,6.90
2012,10,07,02,00,6.90
2012,10,07,02,01,6.90
2012,10,07,02,02,6.90
2012,10,07,02,03,6.90
2012,10,07,02,04,6.90
2012,10,07,02,05,6.90
2012,10,07,02,06,6.90
2012,10,07,02,07,6.90
2012,10,07,02,08,6.90
2012,10,07,02,09,6.90
2012,10,07,02,10,6.90
2012,10,07,02,11,6.90
2012,10,07,02,12,6.90
2012,10,07,02,13,6.90
2012,10,07,02,14,6.90
2012,10,07,02,15,6.90
2012,10,07,02,16,6.90
2012,10,07,02,17,6.90
2012,10,07,02,18,6.80
2012,10,07,02,19,6.80
2012,10,07,02,20,6.80
2012,10,07,02,21,6.80
2012,10,07,02,22,6.80
2012,10,07,02,23,6.80
2012,10,07,02,24,6.80
2012,10,07,02,25,6.80
2012,10,07,02,26,6.80
2012,10,07,02,27,6.80
2012,10,07,02,28,6.80
2012,10,07,02,29,6.80
2012,10,07,02,30,6.80
2012,10,07,02,31,6.80
2012,10,07,02,32,6.80
2012,10,07,02,33,6.80
2012,10,07,02,34,6.80
2012,10,07,02,35,6.80
2012,10,07,02,36,6.80
2012,10,07,02,37,6.70
2012,10,07,02,38,6.70
2012,10,07,02,39,6.70
2012,10,07,02,40,6.70
2012,10,07,02,41,6.70
2012,10,07,02,42,6.70
2012,10,07,02,43,6.70
2012,10,07,02,44,6.70
2012,10,07,02,45,6.70
2012,10,07,02,46,6.70
2012,10,07,02,47,6.70
2012,10,07,02,48,6.70
2012,10,07,02,49,6.70
2012,10,07,02,50,6.70
2012,10,07,02,51,6.70
2012,10,07,02,52,6.70
2012,10,07,02,53,6.70
2012,10,07,02,54,6.70
2012,10,07,02,55,6.70
2012,10,07,02,56,6.70
2012,10,07,02,57,6.70
2012,10,07,02,58,6.60
2012,10,07,02,59,6.60
2012,10,07,03,00,6.60
2012,10,07,03,01,6.60
2012,10,07,03,02,6.60
2012,10,07,03,03,6.60
2012,10,07,03,04,6.50
2012,10,07,03,05,6.50
2012,10,07,03,06,6.50
2012,10,07,03,07,6.50
2012,10,07,03,08,6.50
2012,10,07,03,09,6.50
2012,10,07,03,10,6.50
2012,10,07,03,11,6.50
2012,10,07,03,12,6.50
2012,10,07,03,13,6.60
2012,10,07,03,14,6.60
2012,10,07,03,15,6.60
2012,10,07,03,16,6.60
2012,10,07,03,17,6.60
2012,10,07,03,18,6.70
2012,10,07,03,19,6.70
2012,10,07,03,20,6.60
2012,10,07,03,21,6.60
2012,10,07,03,22,6.60
2012,10,07,03,23,6.60
2012,10,07,03,24,6.50
2012,10,07,03,25,6.50
2012,10,07,03,26,6.40
2012,10,07,03,27,6.40
2012,10,07,03,28,6.40
2012,10,07,03,29,6.40
2012,10,07,03,30,6.40
2012,10,07,03,31,6.40
2012,10,07,03,32,6.40
2012,10,07,03,33,6.40
2012,10,07,03,34,6.40
2012,10,07,03,35,6.40
2012,10,07,03,36,6.30
2012,10,07,03,37,6.30
2012,10,07,03,38,6.30
2012,10,07,03,39,6.30
2012,10,07,03,40,6.30
2012,10,07,03,41,6.30
2012,10,07,03,42,6.30
2012,10,07,03,43,6.30
2012,10,07,03,44,6.30
2012,10,07,03,45,6.20
2012,10,07,03,46,6.30
2012,10,07,03,47,6.20
2012,10,07,03,48,6.20
2012,10,07,03,49,6.20
2012,10,07,03,50,6.30
2012,10,07,03,51,6.30
2012,10,07,03,52,6.30
2012,10,07,03,53,6.30
2012,10,07,03,54,6.30
2012,10,07,03,55,6.30
2012,10,07,03,56,6.20
2012,10,07,03,57,6.20
2012,10,07,03,58,6.20
2012,10,07,03,59,6.20
2012,10,07,04,00,6.20
2012,10,07,04,01,6.20
2012,10,07,04,02,6.20
2012,10,07,04,03,6.20
2012,10,07,04,04,6.20
2012,10,07,04,05,6.20
2012,10,07,04,06,6.10
2012,10,07,04,07,6.20
2012,10,07,04,08,6.20
2012,10,07,04,09,6.20
2012,10,07,04,10,6.30
2012,10,07,04,11,6.30
2012,10,07,04,12,6.30
2012,10,07,04,13,6.30
2012,10,07,04,14,6.30
2012,10,07,04,15,6.30
2012,10,07,04,16,6.30
2012,10,07,04,17,6.30
2012,10,07,04,18,6.30
2012,10,07,04,19,6.30
2012,10,07,04,20,6.30
2012,10,07,04,21,6.30
2012,10,07,04,22,6.30
2012,10,07,04,23,6.30
2012,10,07,04,24,6.30
2012,10,07,04,25,6.30
2012,10,07,04,26,6.30
2012,10,07,04,27,6.20
2012,10,07,04,28,6.20
2012,10,07,04,29,6.20
2012,10,07,04,30,6.20
2012,10,07,04,31,6.20
2012,10,07,04,32,6.20
2012,10,07,04,33,6.20
2012,10,07,04,34,6.10
2012,10,07,04,35,6.10
2012,10,07,04,36,6.10
2012,10,07,04,37,6.10
2012,10,07,04,38,6.10
2012,10,07,04,39,6.10
2012,10,07,04,40,6.10
2012,10,07,04,41,6.10
2012,10,07,04,42,6.00
2012,10,07,04,43,6.00
2012,10,07,04,44,6.00
2012,10,07,04,45,6.00
2012,10,07,04,46,6.00
2012,10,07,04,47,5.90
2012,10,07,04,48,5.90
2012,10,07,04,49,5.90
2012,10,07,04,50,5.90
2012,10,07,04,51,5.90
2012,10,07,04,52,5.90
2012,10,07,04,53,5.90
2012,10,07,04,54,5.90
2012,10,07,04,55,6.00
2012,10,07,04,56,6.00
2012,10,07,04,57,6.10
2012,10,07,04,58,6.20
2012,10,07,04,59,6.20
2012,10,07,05,00,6.30
2012,10,07,05,01,6.30
2012,10,07,05,02,6.30
2012,10,07,05,03,6.30
2012,10,07,05,04,6.30
2012,10,07,05,05,6.30
2012,10,07,05,06,6.20
2012,10,07,05,07,6.20
2012,10,07,05,08,6.20
2012,10,07,05,09,6.20
2012,10,07,05,10,6.20
2012,10,07,05,11,6.20
2012,10,07,05,12,6.20
2012,10,07,05,13,6.20
2012,10,07,05,14,6.20
2012,10,07,05,15,6.20
2012,10,07,05,16,6.20
2012,10,07,05,17,6.20
2012,10,07,05,18,6.10
2012,10,07,05,19,6.10
2012,10,07,05,20,6.10
2012,10,07,05,21,6.10
2012,10,07,05,22,6.00
2012,10,07,05,23,6.00
2012,10,07,05,24,6.00
2012,10,07,05,25,6.00
2012,10,07,05,26,6.00
2012,10,07,05,27,6.00
2012,10,07,05,28,6.00
2012,10,07,05,29,6.00
2012,10,07,05,30,5.90
2012,10,07,05,31,5.90
2012,10,07,05,32,5.90
2012,10,07,05,33,5.90
2012,10,07,05,34,5.90
2012,10,07,05,35,5.80
2012,10,07,05,36,5.80
2012,10,07,05,37,5.80
2012,10,07,05,38,5.80
2012,10,07,05,39,5.80
2012,10,07,05,40,5.80
2012,10,07,05,41,5.80
2012,10,07,05,42,5.80
2012,10,07,05,43,5.80
2012,10,07,05,44,5.80
2012,10,07,05,45,5.80
2012,10,07,05,46,5.80
2012,10,07,05,47,5.80
2012,10,07,05,48,5.80
2012,10,07,05,49,5.80
2012,10,07,05,50,5.80
2012,10,07,05,51,5.80
2012,10,07,05,52,5.80
2012,10,07,05,53,5.80
2012,10,07,05,54,5.80
2012,10,07,05,55,5.70
2012,10,07,05,56,5.70
2012,10,07,05,57,5.70
2012,10,07,05,58,5.70
2012,10,07,05,59,5.70
2012,10,07,06,00,5.70
2012,10,07,06,01,5.70
2012,10,07,06,02,5.70
2012,10,07,06,03,5.70
2012,10,07,06,04,5.70
2012,10,07,06,05,5.70
2012,10,07,06,06,5.70
2012,10,07,06,07,5.70
2012,10,07,06,08,5.70
2012,10,07,06,09,5.70
2012,10,07,06,10,5.70
2012,10,07,06,11,5.60
2012,10,07,06,12,5.60
2012,10,07,06,13,5.60
2012,10,07,06,14,5.60
2012,10,07,06,15,5.60
2012,10,07,06,16,5.60
2012,10,07,06,17,5.60
2012,10,07,06,18,5.60
2012,10,07,06,19,5.60
2012,10,07,06,20,5.60
2012,10,07,06,21,5.60
2012,10,07,06,22,5.60
2012,10,07,06,23,5.60
2012,10,07,06,24,5.60
2012,10,07,06,25,5.60
2012,10,07,06,26,5.60
2012,10,07,06,27,5.60
2012,10,07,06,28,5.60
2012,10,07,06,29,5.60
2012,10,07,06,30,5.60
2012,10,07,06,31,5.60
2012,10,07,06,32,5.60
2012,10,07,06,33,5.50
2012,10,07,06,34,5.50
2012,10,07,06,35,5.50
2012,10,07,06,36,5.40
2012,10,07,06,37,5.40
2012,10,07,06,38,5.40
2012,10,07,06,39,5.40
2012,10,07,06,40,5.40
2012,10,07,06,41,5.40
2012,10,07,06,42,5.40
2012,10,07,06,43,5.40
2012,10,07,06,44,5.40
2012,10,07,06,45,5.40
2012,10,07,06,46,5.40
2012,10,07,06,47,5.40
2012,10,07,06,48,5.40
2012,10,07,06,49,5.40
2012,10,07,06,50,5.40
2012,10,07,06,51,5.40
2012,10,07,06,52,5.40
2012,10,07,06,53,5.30
2012,10,07,06,54,5.30
2012,10,07,06,55,5.30
2012,10,07,06,56,5.30
2012,10,07,06,57,5.40
2012,10,07,06,58,5.40
2012,10,07,06,59,5.40
2012,10,07,07,00,5.40
2012,10,07,07,01,5.30
2012,10,07,07,02,5.30
2012,10,07,07,03,5.30
2012,10,07,07,04,5.40
2012,10,07,07,05,5.40
2012,10,07,07,06,5.40
2012,10,07,07,07,5.40
2012,10,07,07,08,5.40
2012,10,07,07,09,5.40
2012,10,07,07,10,5.40
2012,10,07,07,11,5.40
2012,10,07,07,12,5.40
2012,10,07,07,13,5.30
2012,10,07,07,14,5.30
2012,10,07,07,15,5.30
2012,10,07,07,16,5.30
2012,10,07,07,17,5.20
2012,10,07,07,18,5.30
2012,10,07,07,19,5.30
2012,10,07,07,20,5.30
2012,10,07,07,21,5.30
2012,10,07,07,22,5.30
2012,10,07,07,23,5.30
2012,10,07,07,24,5.30
2012,10,07,07,25,5.30
2012,10,07,07,26,5.30
2012,10,07,07,27,5.20
2012,10,07,07,28,5.20
2012,10,07,07,29,5.20
2012,10,07,07,30,5.20
2012,10,07,07,31,5.20
2012,10,07,07,32,5.20
2012,10,07,07,33,5.20
2012,10,07,07,34,5.20
2012,10,07,07,35,5.20
2012,10,07,07,36,5.20
2012,10,07,07,37,5.20
2012,10,07,07,38,5.20
2012,10,07,07,39,5.20
2012,10,07,07,40,5.20
2012,10,07,07,41,5.30
2012,10,07,07,42,5.30
2012,10,07,07,43,5.40
2012,10,07,07,44,5.40
2012,10,07,07,45,5.50
2012,10,07,07,46,5.50
2012,10,07,07,47,5.60
2012,10,07,07,48,5.60
2012,10,07,07,49,5.60
2012,10,07,07,50,5.60
2012,10,07,07,51,5.70
2012,10,07,07,52,5.70
2012,10,07,07,53,5.70
2012,10,07,07,54,5.70
2012,10,07,07,55,5.70
2012,10,07,07,56,5.80
2012,10,07,07,57,5.80
2012,10,07,07,58,5.80
2012,10,07,07,59,5.70
2012,10,07,08,00,5.70
2012,10,07,08,01,5.60
2012,10,07,08,02,5.60
2012,10,07,08,03,5.50
2012,10,07,08,04,5.50
2012,10,07,08,05,5.40
2012,10,07,08,06,5.40
2012,10,07,08,07,5.30
2012,10,07,08,08,5.30
2012,10,07,08,09,5.30
2012,10,07,08,10,5.30
2012,10,07,08,11,5.20
2012,10,07,08,12,5.20
2012,10,07,08,13,5.20
2012,10,07,08,14,5.20
2012,10,07,08,15,5.20
2012,10,07,08,16,5.20
2012,10,07,08,17,5.20
2012,10,07,08,18,5.30
2012,10,07,08,19,5.30
2012,10,07,08,20,5.30
2012,10,07,08,21,5.30
2012,10,07,08,22,5.30
2012,10,07,08,23,5.30
2012,10,07,08,24,5.20
2012,10,07,08,25,5.20
2012,10,07,08,26,5.20
2012,10,07,08,27,5.20
2012,10,07,08,28,5.20
2012,10,07,08,29,5.20
2012,10,07,08,30,5.20
2012,10,07,08,31,5.20
2012,10,07,08,32,5.20
2012,10,07,08,33,5.20
2012,10,07,08,34,5.20
2012,10,07,08,35,5.20
2012,10,07,08,36,5.20
2012,10,07,08,37,5.20
2012,10,07,08,38,5.20
2012,10,07,08,39,5.20
2012,10,07,08,40,5.20
2012,10,07,08,41,5.20
2012,10,07,08,42,5.20
2012,10,07,08,43,5.20
2012,10,07,08,44,5.20
2012,10,07,08,45,5.20
2012,10,07,08,46,5.20
2012,10,07,08,47,5.20
2012,10,07,08,48,5.20
2012,10,07,08,49,5.20
2012,10,07,08,50,5.20
2012,10,07,08,51,5.20
2012,10,07,08,52,5.20
2012,10,07,08,53,5.20
2012,10,07,08,54,5.20
2012,10,07,08,55,5.20
2012,10,07,08,56,5.20
2012,10,07,08,57,5.20
2012,10,07,08,58,5.20
2012,10,07,08,59,5.20
2012,10,07,09,00,5.20
2012,10,07,09,01,5.20
2012,10,07,09,02,5.20
2012,10,07,09,03,5.20
2012,10,07,09,04,5.30
2012,10,07,09,05,5.30
2012,10,07,09,06,5.30
2012,10,07,09,07,5.30
2012,10,07,09,08,5.30
2012,10,07,09,09,5.30
2012,10,07,09,10,5.30
2012,10,07,09,11,5.30
2012,10,07,09,12,5.30
2012,10,07,09,13,5.40
2012,10,07,09,14,5.40
2012,10,07,09,15,5.30
2012,10,07,09,16,5.30
2012,10,07,09,17,5.30
2012,10,07,09,18,5.30
2012,10,07,09,19,5.30
2012,10,07,09,20,5.30
2012,10,07,09,21,5.30
2012,10,07,09,22,5.30
2012,10,07,09,23,5.30
2012,10,07,09,24,5.30
2012,10,07,09,25,5.30
2012,10,07,09,26,5.30
2012,10,07,09,27,5.30
2012,10,07,09,28,5.30
2012,10,07,09,29,5.30
2012,10,07,09,30,5.40
2012,10,07,09,31,5.40
2012,10,07,09,32,5.40
2012,10,07,09,33,5.40
2012,10,07,09,34,5.40
2012,10,07,09,35,5.40
2012,10,07,09,36,5.40
2012,10,07,09,37,5.40
2012,10,07,09,38,5.40
2012,10,07,09,39,5.40
2012,10,07,09,40,5.40
2012,10,07,09,41,5.40
2012,10,07,09,42,5.40
2012,10,07,09,43,5.50
2012,10,07,09,44,5.50
2012,10,07,09,45,5.50
2012,10,07,09,46,5.50
2012,10,07,09,47,5.50
2012,10,07,09,48,5.50
2012,10,07,09,49,5.60
2012,10,07,09,50,5.60
2012,10,07,09,51,5.60
2012,10,07,09,52,5.60
2012,10,07,09,53,5.60
2012,10,07,09,54,5.60
2012,10,07,09,55,5.60
2012,10,07,09,56,5.70
2012,10,07,09,57,5.70
2012,10,07,09,58,5.70
2012,10,07,09,59,5.70
2012,10,07,10,00,5.70
2012,10,07,10,01,5.70
2012,10,07,10,02,5.70
2012,10,07,10,03,5.70
2012,10,07,10,04,5.70
2012,10,07,10,05,5.70
2012,10,07,10,06,5.70
2012,10,07,10,07,5.80
2012,10,07,10,08,5.80
2012,10,07,10,09,5.80
2012,10,07,10,10,5.80
2012,10,07,10,11,5.90
2012,10,07,10,12,5.90
2012,10,07,10,13,6.00
2012,10,07,10,14,6.20
2012,10,07,10,15,6.40
2012,10,07,10,16,6.50
2012,10,07,10,17,6.60
2012,10,07,10,18,6.60
2012,10,07,10,19,6.60
2012,10,07,10,20,6.70
2012,10,07,10,21,6.70
2012,10,07,10,22,6.80
2012,10,07,10,23,6.80
2012,10,07,10,24,6.90
2012,10,07,10,25,6.90
2012,10,07,10,26,6.90
2012,10,07,10,27,6.90
2012,10,07,10,28,6.90
2012,10,07,10,29,6.90
2012,10,07,10,30,7.00
2012,10,07,10,31,7.00
2012,10,07,10,32,7.10
2012,10,07,10,33,7.10
2012,10,07,10,34,7.20
2012,10,07,10,35,7.20
2012,10,07,10,36,7.20
2012,10,07,10,37,7.30
2012,10,07,10,38,7.30
2012,10,07,10,39,7.40
2012,10,07,10,40,7.50
2012,10,07,10,41,7.50
2012,10,07,10,42,7.60
2012,10,07,10,43,7.70
2012,10,07,10,44,7.80
2012,10,07,10,45,7.80
2012,10,07,10,46,7.90
2012,10,07,10,47,7.90
2012,10,07,10,48,8.00
2012,10,07,10,49,8.10
2012,10,07,10,50,8.20
2012,10,07,10,51,8.30
2012,10,07,10,52,8.40
2012,10,07,10,53,8.50
2012,10,07,10,54,8.60
2012,10,07,10,55,8.70
2012,10,07,10,56,8.80
2012,10,07,10,57,8.90
2012,10,07,10,58,9.00
2012,10,07,10,59,9.10
2012,10,07,11,00,9.30
2012,10,07,11,01,9.40
2012,10,07,11,02,9.60
2012,10,07,11,03,9.70
2012,10,07,11,04,9.90
2012,10,07,11,05,10.00
2012,10,07,11,06,10.20
2012,10,07,11,07,10.30
2012,10,07,11,08,10.40
2012,10,07,11,09,10.50
2012,10,07,11,10,10.60
2012,10,07,11,11,10.70
2012,10,07,11,12,10.80
2012,10,07,11,13,10.90
2012,10,07,11,14,11.00
2012,10,07,11,15,11.10
2012,10,07,11,16,11.10
2012,10,07,11,17,11.20
2012,10,07,11,18,11.30
2012,10,07,11,19,11.40
2012,10,07,11,20,11.50
2012,10,07,11,21,11.60
2012,10,07,11,22,11.60
2012,10,07,11,23,11.70
2012,10,07,11,24,11.80
2012,10,07,11,25,11.90
2012,10,07,11,26,12.00
2012,10,07,11,27,12.10
2012,10,07,11,28,12.20
2012,10,07,11,29,12.30
2012,10,07,11,30,12.40
2012,10,07,11,31,12.50
2012,10,07,11,32,12.60
2012,10,07,11,33,12.80
2012,10,07,11,34,12.90
2012,10,07,11,35,13.00
2012,10,07,11,36,13.00
2012,10,07,11,37,13.10
2012,10,07,11,38,13.20
2012,10,07,11,39,13.30
2012,10,07,11,40,13.30
2012,10,07,11,41,13.40
2012,10,07,11,42,13.50
2012,10,07,11,43,13.60
2012,10,07,11,44,13.70
2012,10,07,11,45,13.80
2012,10,07,11,46,13.90
2012,10,07,11,47,14.00
2012,10,07,11,48,14.10
2012,10,07,11,49,14.10
2012,10,07,11,50,14.20
2012,10,07,11,51,14.30
2012,10,07,11,52,14.30
2012,10,07,11,53,14.40
2012,10,07,11,54,14.40
2012,10,07,11,55,14.50
2012,10,07,11,56,14.60
2012,10,07,11,57,14.70
2012,10,07,11,58,14.80
2012,10,07,11,59,14.90
2012,10,07,12,00,15.00
2012,10,07,12,01,15.10
2012,10,07,12,02,15.20
2012,10,07,12,03,15.30
2012,10,07,12,04,15.40
2012,10,07,12,05,15.50
2012,10,07,12,06,15.60
2012,10,07,12,07,15.60
2012,10,07,12,08,15.70
2012,10,07,12,09,15.80
2012,10,07,12,10,15.80
2012,10,07,12,11,15.80
2012,10,07,12,12,15.90
2012,10,07,12,13,15.90
2012,10,07,12,14,15.80
2012,10,07,12,15,15.80
2012,10,07,12,16,15.80
2012,10,07,12,17,15.80
2012,10,07,12,18,15.80
2012,10,07,12,19,15.80
2012,10,07,12,20,15.80
2012,10,07,12,21,15.80
2012,10,07,12,22,15.90
2012,10,07,12,23,16.00
2012,10,07,12,24,16.10
2012,10,07,12,25,16.20
2012,10,07,12,26,16.30
2012,10,07,12,27,16.40
2012,10,07,12,28,16.50
2012,10,07,12,29,16.50
2012,10,07,12,30,16.60
2012,10,07,12,31,16.70
2012,10,07,12,32,16.80
2012,10,07,12,33,16.80
2012,10,07,12,34,16.90
2012,10,07,12,35,17.00
2012,10,07,12,36,17.10
2012,10,07,12,37,17.20
2012,10,07,12,38,17.20
2012,10,07,12,39,17.30
2012,10,07,12,40,17.40
2012,10,07,12,41,17.40
2012,10,07,12,42,17.50
2012,10,07,12,43,17.50
2012,10,07,12,44,17.60
2012,10,07,12,45,17.70
2012,10,07,12,46,17.80
2012,10,07,12,47,17.80
2012,10,07,12,48,17.90
2012,10,07,12,49,18.00
2012,10,07,12,50,18.10
2012,10,07,12,51,18.10
2012,10,07,12,52,18.20
2012,10,07,12,53,18.20
2012,10,07,12,54,18.30
2012,10,07,12,55,18.40
2012,10,07,12,56,18.40
2012,10,07,12,57,18.50
2012,10,07,12,58,18.60
2012,10,07,12,59,18.70
2012,10,07,13,00,18.70
2012,10,07,13,01,18.80
2012,10,07,13,02,18.90
2012,10,07,13,03,18.90
2012,10,07,13,04,19.00
2012,10,07,13,05,19.10
2012,10,07,13,06,19.20
2012,10,07,13,07,19.20
2012,10,07,13,08,19.30
2012,10,07,13,09,19.40
2012,10,07,13,10,19.40
2012,10,07,13,11,19.50
2012,10,07,13,12,19.60
2012,10,07,13,13,19.70
2012,10,07,13,14,19.70
2012,10,07,13,15,19.80
2012,10,07,13,16,19.80
2012,10,07,13,17,19.90
2012,10,07,13,18,19.90
2012,10,07,13,19,20.00
2012,10,07,13,20,20.00
2012,10,07,13,21,20.00
2012,10,07,13,22,20.00
2012,10,07,13,23,20.00
2012,10,07,13,24,20.10
2012,10,07,13,25,20.20
2012,10,07,13,26,20.20
2012,10,07,13,27,20.20
2012,10,07,13,28,20.20
2012,10,07,13,29,20.20
2012,10,07,13,30,20.30
2012,10,07,13,31,20.30
2012,10,07,13,32,20.40
2012,10,07,13,33,20.40
2012,10,07,13,34,20.50
2012,10,07,13,35,20.50
2012,10,07,13,36,20.60
2012,10,07,13,37,20.60
2012,10,07,13,38,20.60
2012,10,07,13,39,20.60
2012,10,07,13,40,20.60
2012,10,07,13,41,20.60
2012,10,07,13,42,20.60
2012,10,07,13,43,20.60
2012,10,07,13,44,20.60
2012,10,07,13,45,20.60
2012,10,07,13,46,20.60
2012,10,07,13,47,20.60
2012,10,07,13,48,20.60
2012,10,07,13,49,20.60
2012,10,07,13,50,20.60
2012,10,07,13,51,20.50
2012,10,07,13,52,20.40
2012,10,07,13,53,20.40
2012,10,07,13,54,20.40
2012,10,07,13,55,20.30
2012,10,07,13,56,20.30
2012,10,07,13,57,20.30
2012,10,07,13,58,20.20
2012,10,07,13,59,20.20
2012,10,07,14,00,20.10
2012,10,07,14,01,20.10
2012,10,07,14,02,20.00
2012,10,07,14,03,20.00
2012,10,07,14,04,19.90
2012,10,07,14,05,19.90
2012,10,07,14,06,19.90
2012,10,07,14,07,19.90
2012,10,07,14,08,19.80
2012,10,07,14,09,19.80
2012,10,07,14,10,19.80
2012,10,07,14,11,19.80
2012,10,07,14,12,19.90
2012,10,07,14,13,19.90
2012,10,07,14,14,20.00
2012,10,07,14,15,20.00
2012,10,07,14,16,20.00
2012,10,07,14,17,20.00
2012,10,07,14,18,20.00
2012,10,07,14,19,20.10
2012,10,07,14,20,20.10
2012,10,07,14,21,20.20
2012,10,07,14,22,20.20
2012,10,07,14,23,20.30
2012,10,07,14,24,20.30
2012,10,07,14,25,20.30
2012,10,07,14,26,20.30
2012,10,07,14,27,20.40
2012,10,07,14,28,20.40
2012,10,07,14,29,20.40
2012,10,07,14,30,20.40
2012,10,07,14,31,20.40
2012,10,07,14,32,20.40
2012,10,07,14,33,20.40
2012,10,07,14,34,20.40
2012,10,07,14,35,20.40
2012,10,07,14,36,20.40
2012,10,07,14,37,20.40
2012,10,07,14,38,20.40
2012,10,07,14,39,20.40
2012,10,07,14,40,20.40
2012,10,07,14,41,20.30
2012,10,07,14,42,20.30
2012,10,07,14,43,20.30
2012,10,07,14,44,20.30
2012,10,07,14,45,20.30
2012,10,07,14,46,20.30
2012,10,07,14,47,20.30
2012,10,07,14,48,20.30
2012,10,07,14,49,20.30
2012,10,07,14,50,20.30
2012,10,07,14,51,20.30
2012,10,07,14,52,20.30
2012,10,07,14,53,20.30
2012,10,07,14,54,20.20
2012,10,07,14,55,20.20
2012,10,07,14,56,20.20
2012,10,07,14,57,20.20
2012,10,07,14,58,20.20
2012,10,07,14,59,20.20
2012,10,07,15,00,20.20
2012,10,07,15,01,20.30
2012,10,07,15,02,20.30
2012,10,07,15,03,20.30
2012,10,07,15,04,20.30
2012,10,07,15,05,20.30
2012,10,07,15,06,20.30
2012,10,07,15,07,20.30
2012,10,07,15,08,20.30
2012,10,07,15,09,20.30
2012,10,07,15,10,20.20
2012,10,07,15,11,20.20
2012,10,07,15,12,20.20
2012,10,07,15,13,20.20
2012,10,07,15,14,20.20
2012,10,07,15,15,20.10
2012,10,07,15,16,20.10
2012,10,07,15,17,20.10
2012,10,07,15,18,20.10
2012,10,07,15,19,20.10
2012,10,07,15,20,20.10
2012,10,07,15,21,20.00
2012,10,07,15,22,20.00
2012,10,07,15,23,20.00
2012,10,07,15,24,19.90
2012,10,07,15,25,19.90
2012,10,07,15,26,19.90
2012,10,07,15,27,19.90
2012,10,07,15,28,19.90
2012,10,07,15,29,19.90
2012,10,07,15,30,20.00
2012,10,07,15,31,20.10
2012,10,07,15,32,20.20
2012,10,07,15,33,20.30
2012,10,07,15,34,20.40
2012,10,07,15,35,20.40
2012,10,07,15,36,20.50
2012,10,07,15,37,20.50
2012,10,07,15,38,20.50
2012,10,07,15,39,20.50
2012,10,07,15,40,20.60
2012,10,07,15,41,20.60
2012,10,07,15,42,20.60
2012,10,07,15,43,20.60
2012,10,07,15,44,20.60
2012,10,07,15,45,20.60
2012,10,07,15,46,20.60
2012,10,07,15,47,20.60
2012,10,07,15,48,20.60
2012,10,07,15,49,20.60
2012,10,07,15,50,20.60
2012,10,07,15,51,20.60
2012,10,07,15,52,20.70
2012,10,07,15,53,20.70
2012,10,07,15,54,20.60
2012,10,07,15,55,20.60
2012,10,07,15,56,20.60
2012,10,07,15,57,20.60
2012,10,07,15,58,20.70
2012,10,07,15,59,20.70
2012,10,07,16,00,20.70
2012,10,07,16,01,20.70
2012,10,07,16,02,20.70
2012,10,07,16,03,20.70
2012,10,07,16,04,20.70
2012,10,07,16,05,20.70
2012,10,07,16,06,20.70
2012,10,07,16,07,20.70
2012,10,07,16,08,20.70
2012,10,07,16,09,20.70
2012,10,07,16,10,20.70
2012,10,07,16,11,20.70
2012,10,07,16,12,20.60
2012,10,07,16,13,20.60
2012,10,07,16,14,20.60
2012,10,07,16,15,20.60
2012,10,07,16,16,20.60
2012,10,07,16,17,20.60
2012,10,07,16,18,20.60
2012,10,07,16,19,20.60
2012,10,07,16,20,20.60
2012,10,07,16,21,20.60
2012,10,07,16,22,20.60
2012,10,07,16,23,20.60
2012,10,07,16,24,20.60
2012,10,07,16,25,20.70
2012,10,07,16,26,20.70
2012,10,07,16,27,20.70
2012,10,07,16,28,20.70
2012,10,07,16,29,20.70
2012,10,07,16,30,20.80
2012,10,07,16,31,20.80
2012,10,07,16,32,20.80
2012,10,07,16,33,20.80
2012,10,07,16,34,20.80
2012,10,07,16,35,20.80
2012,10,07,16,36,20.80
2012,10,07,16,37,20.80
2012,10,07,16,38,20.80
2012,10,07,16,39,20.80
2012,10,07,16,40,20.70
2012,10,07,16,41,20.70
2012,10,07,16,42,20.70
2012,10,07,16,43,20.60
2012,10,07,16,44,20.60
2012,10,07,16,45,20.50
2012,10,07,16,46,20.50
2012,10,07,16,47,20.40
2012,10,07,16,48,20.30
2012,10,07,16,49,20.30
2012,10,07,16,50,20.30
2012,10,07,16,51,20.30
2012,10,07,16,52,20.20
2012,10,07,16,53,20.10
2012,10,07,16,54,20.10
2012,10,07,16,55,20.10
2012,10,07,16,56,20.00
2012,10,07,16,57,19.90
2012,10,07,16,58,19.90
2012,10,07,16,59,19.90
2012,10,07,17,00,19.80
2012,10,07,17,01,19.80
2012,10,07,17,02,19.80
2012,10,07,17,03,19.80
2012,10,07,17,04,19.80
2012,10,07,17,05,19.80
2012,10,07,17,06,19.90
2012,10,07,17,07,19.90
2012,10,07,17,08,19.90
2012,10,07,17,09,19.90
2012,10,07,17,10,19.90
2012,10,07,17,11,19.90
2012,10,07,17,12,19.80
2012,10,07,17,13,19.70
2012,10,07,17,14,19.60
2012,10,07,17,15,19.50
2012,10,07,17,16,19.40
2012,10,07,17,17,19.20
2012,10,07,17,18,19.10
2012,10,07,17,19,19.00
2012,10,07,17,20,18.80
2012,10,07,17,21,18.70
2012,10,07,17,22,18.60
2012,10,07,17,23,18.40
2012,10,07,17,24,18.30
2012,10,07,17,25,18.20
2012,10,07,17,26,18.20
2012,10,07,17,27,18.20
2012,10,07,17,28,18.10
2012,10,07,17,29,18.10
2012,10,07,17,30,18.10
2012,10,07,17,31,18.00
2012,10,07,17,32,17.90
2012,10,07,17,33,17.90
2012,10,07,17,34,17.80
2012,10,07,17,35,17.80
2012,10,07,17,36,17.70
2012,10,07,17,37,17.70
2012,10,07,17,38,17.60
2012,10,07,17,39,17.60
2012,10,07,17,40,17.60
2012,10,07,17,41,17.60
2012,10,07,17,42,17.50
2012,10,07,17,43,17.50
2012,10,07,17,44,17.40
2012,10,07,17,45,17.40
2012,10,07,17,46,17.30
2012,10,07,17,47,17.30
2012,10,07,17,48,17.30